This is the latest recevied weather packets stored in our database for station/object TA2NC-13. If no packets are shown the sender has not sent any weather packets the latest 10 day(s).
| Time | Temp. | Humidity | Pressure | Rain* | Wind** | Luminosity | Snow |
|---|---|---|---|---|---|---|---|
| 1777619400 | 15° C | 55% | 1011 hPa | 0 mm | - | - | - |
| 1777618803 | 15° C | 54% | 1011 hPa | 0 mm | - | - | - |
| 1777618201 | 15° C | 54% | 1011 hPa | 0 mm | - | - | - |
| 1777617601 | 15.56° C | 56% | 1011 hPa | 0 mm | - | - | - |
| 1777617001 | 15° C | 53% | 1011 hPa | 0 mm | - | - | - |
| 1777616401 | 16.11° C | 54% | 1011 hPa | 0 mm | - | - | - |
| 1777615801 | 16.11° C | 54% | 1011 hPa | 0 mm | - | - | - |
| 1777615201 | 15.56° C | 55% | 1011 hPa | 0 mm | - | - | - |
| 1777614601 | 15.56° C | 56% | 1012 hPa | 0 mm | - | - | - |
| 1777614001 | 14.44° C | 58% | 1012 hPa | 0 mm | - | - | - |
| 1777613401 | 13.89° C | 59% | 1012 hPa | 0 mm | - | - | - |
| 1777612801 | 13.33° C | 60% | 1012 hPa | 0 mm | - | - | - |
| 1777612200 | 12.78° C | 61% | 1012 hPa | 0 mm | - | - | - |
| 1777611601 | 12.22° C | 66% | 1012 hPa | 0 mm | - | - | - |
| 1777611001 | 10.56° C | 70% | 1012 hPa | 0 mm | - | - | - |
| 1777610401 | 10° C | 70% | 1012 hPa | 0 mm | - | - | - |
| 1777609801 | 10° C | 72% | 1012 hPa | 0 mm | - | - | - |
| 1777609201 | 10° C | 72% | 1012 hPa | 0 mm | - | - | - |
| 1777608601 | 9.44° C | 71% | 1012 hPa | 0 mm | - | - | - |
| 1777608001 | 9.44° C | 72% | 1012 hPa | 0 mm | - | - | - |
| 1777607401 | 8.89° C | 71% | 1012 hPa | 0 mm | - | - | - |
| 1777606801 | 8.89° C | 71% | 1012 hPa | 0 mm | - | - | - |
| 1777606201 | 8.89° C | 72% | 1012 hPa | 0 mm | - | - | - |
| 1777605601 | 8.33° C | 71% | 1012 hPa | 0 mm | - | - | - |
| 1777605001 | 8.33° C | 71% | 1012 hPa | 0 mm | - | - | - |
* Rain latest hour (hover to see other rain measurements)
** Current wind speed in m/s (hover to see current wind gust speed)